FW7943 Weather Reports


time (UTC)temp
C
wind
direction
speed
KPH
gust
KPH
rain 1hr
cm
rain 24hr
cm
rain mn
cm
humidity
%
barometer
mb
20260906114438 18 46 0.0 0.0 0.00 0.00 0.00 99 1016.5
20260906113935 18 45 0.0 0.0 0.00 0.00 0.00 99 1016.6
20260906113433 18 48 0.0 0.0 0.00 0.00 0.00 99 1016.4
20260906112929 18 34 0.0 0.0 0.00 0.00 0.00 99 1016.5
20260906112424 18 34 0.0 0.0 0.00 0.00 0.00 99 1016.4
20260906111920 18 34 0.0 0.0 0.00 0.00 0.00 99 1016.2
20260906111420 18 33 0.0 0.0 0.00 0.00 0.00 99 1016.4
20260906110914 18 33 0.0 0.0 0.00 0.00 0.00 99 1016.1
20260906110410 18 33 0.0 0.0 0.00 0.00 0.00 99 1016.2
20260906105909 18 33 0.0 0.0 0.00 0.00 0.00 99 1016.1
20260906105404 18 33 0.0 0.0 0.00 0.00 0.00 99 1016.0
20260906104900 18 33 0.0 0.0 0.00 0.00 0.00 99 1015.7
20260906104359 18 33 0.0 0.0 0.00 0.00 0.00 99 1015.6
20260906103857 18 33 0.0 0.0 0.00 0.00 0.00 99 1015.7
20260906103356 18 33 0.0 0.0 0.00 0.00 0.00 99 1015.6
20260906102852 18 33 0.0 0.0 0.00 0.00 0.00 99 1015.4
20260906102352 18 34 0.0 0.0 0.00 0.00 0.00 99 1015.5
20260906101846 18 33 0.0 0.0 0.00 0.00 0.00 99 1015.4
20260906101341 18 33 0.0 0.0 0.00 0.00 0.00 99 1015.7
20260906100837 18 35 0.0 0.0 0.00 0.00 0.00 99 1015.3
20260906100336 18 31 0.0 0.0 0.00 0.00 0.00 99 1015.7
20260906095831 18 48 0.0 0.0 0.00 0.00 0.00 99 1015.4
20260906095326 18 48 0.0 0.0 0.00 0.00 0.00 99 1015.4
20260906094826 18 48 0.0 0.0 0.00 0.00 0.00 99 1015.2
20260906094320 18 50 0.0 0.0 0.00 0.00 0.00 99 1015.4
20260906093811 18 356 0.0 0.0 0.00 0.00 0.00 99 1015.5
20260906093307 18 6 0.0 0.0 0.00 0.00 0.00 99 1015.7
20260906092802 18 6 0.0 0.0 0.00 0.00 0.00 99 1015.6
20260906092301 18 6 0.0 0.0 0.00 0.00 0.00 99 1015.3
20260906091757 18 6 0.0 0.0 0.00 0.00 0.00 99 1015.1
20260906091254 18 5 0.0 0.0 0.00 0.00 0.00 99 1015.2
20260906090750 18 6 0.0 0.0 0.00 0.00 0.00 99 1015.0
20260906090249 18 5 0.0 0.0 0.00 0.00 0.00 99 1015.0
20260906085748 18 5 0.0 0.0 0.00 0.00 0.00 99 1015.4
20260906085247 18 5 0.0 0.0 0.00 0.00 0.00 99 1015.1
20260906084743 18 6 0.0 0.0 0.00 0.00 0.00 99 1015.1
20260906084242 18 6 0.0 0.0 0.00 0.00 0.00 99 1015.0
20260906083737 18 7 0.0 0.0 0.00 0.00 0.00 99 1015.0
20260906083232 18 341 0.0 0.0 0.00 0.00 0.00 99 1015.1
20260906082728 18 343 0.0 0.0 0.00 0.00 0.00 99 1015.3
20260906082222 18 325 0.0 0.0 0.00 0.00 0.00 99 1015.3
20260906081719 18 330 0.0 0.0 0.00 0.00 0.00 99 1015.5
20260906081213 18 331 0.0 0.0 0.00 0.00 0.00 99 1015.3
20260906080710 18 331 0.0 0.0 0.00 0.00 0.00 99 1015.3
20260906080206 18 330 0.0 0.0 0.00 0.00 0.00 99 1015.1
20260906075706 18 358 0.0 0.0 0.00 0.00 0.00 99 1015.3
20260906075200 18 359 0.0 0.0 0.00 0.00 0.00 99 1015.2
20260906074655 18 0 0.0 0.0 0.00 0.00 0.00 99 1015.1
20260906074149 18 0 0.0 0.0 0.00 0.00 0.00 99 1014.9
20260906073644 18 0 0.0 0.0 0.00 0.00 0.00 99 1015.1
20260906073140 18 0 0.0 0.0 0.00 0.00 0.00 99 1015.1
20260906072634 18 337 0.0 0.0 0.00 0.00 0.00 99 1015.3
20260906072130 18 336 0.0 0.0 0.00 0.00 0.00 99 1015.2
20260906071621 18 336 0.0 0.0 0.00 0.00 0.00 99 1015.1
20260906071121 18 336 0.0 0.0 0.00 0.00 0.00 99 1014.9
20260906070618 18 336 0.0 0.0 0.00 0.00 0.00 99 1015.3
20260906070113 18 336 0.0 0.0 0.00 0.00 0.00 99 1015.3
20260906065613 18 336 0.0 0.0 0.00 0.00 0.00 99 1015.3
20260906065108 18 336 0.0 0.0 0.00 0.00 0.00 99 1015.2
20260906064603 18 336 0.0 0.0 0.00 0.00 0.00 99 1015.3
20260906064058 18 336 0.0 0.0 0.00 0.00 0.00 99 1015.5
20260906063553 18 336 0.0 0.0 0.00 0.00 0.00 99 1015.6
20260906063049 18 336 0.0 0.0 0.00 0.00 0.00 99 1015.6
20260906062545 18 335 0.0 0.0 0.00 0.00 0.00 99 1015.6
20260906062044 18 335 0.0 0.0 0.00 0.00 0.00 99 1015.5
20260906061541 18 334 0.0 0.0 0.00 0.00 0.00 99 1015.6
20260906061040 18 81 0.0 0.0 0.00 0.00 0.00 99 1015.3
20260906060536 18 83 0.0 0.0 0.00 0.00 0.00 99 1015.4
20260906060033 18 52 0.0 0.0 0.00 0.00 0.00 99 1015.4
20260906055529 18 3 0.0 0.0 0.00 0.00 0.00 99 1015.7
20260906055024 18 3 0.0 0.0 0.00 0.00 0.00 99 1015.9
20260906054524 18 4 0.0 0.0 0.00 0.00 0.00 99 1015.9
20260906054019 18 4 0.0 0.0 0.00 0.00 0.00 99 1016.0
20260906053516 18 3 0.0 0.0 0.00 0.00 0.00 99 1016.0
20260906053011 18 2 0.0 0.0 0.00 0.00 0.00 99 1016.1
20260906052507 18 2 0.0 0.0 0.00 0.00 0.00 99 1016.2
20260906052004 19 2 0.0 0.0 0.00 0.00 0.00 99 1016.1
20260906051459 18 2 0.0 0.0 0.00 0.00 0.00 99 1016.0
20260906050955 18 2 0.0 0.0 0.00 0.00 0.00 99 1016.1
20260906050454 18 2 0.0 0.0 0.00 0.00 0.00 99 1016.1
20260906045954 19 2 0.0 0.0 0.00 0.00 0.00 99 1016.0
20260906045452 19 2 0.0 0.0 0.00 0.00 0.00 99 1015.9
20260906044948 19 2 0.0 0.0 0.00 0.00 0.00 99 1015.9
20260906044444 19 2 0.0 0.0 0.00 0.00 0.00 99 1016.0
20260906043939 19 93 0.0 0.0 0.00 0.00 0.00 99 1015.9
20260906043435 19 103 0.0 0.0 0.00 0.00 0.00 99 1015.4
20260906042931 19 104 0.0 0.0 0.00 0.00 0.00 99 1015.9
20260906042429 19 94 0.0 0.0 0.00 0.00 0.00 99 1015.7
20260906041924 19 94 0.0 0.0 0.00 0.00 0.00 99 1015.6
20260906041415 19 95 0.0 0.0 0.00 0.00 0.00 99 1015.7
20260906040914 19 94 0.0 0.0 0.00 0.00 0.00 99 1016.0
20260906040410 20 110 3.2 3.2 0.00 0.00 0.00 99 1015.9
20260906035905 20 19 0.0 0.0 0.00 0.36 0.36 99 1016.1
20260906035400 20 18 0.0 0.0 0.00 0.36 0.36 98 1016.3
20260906034855 20 18 0.0 0.0 0.00 0.36 0.36 98 1016.2
20260906034350 20 18 0.0 0.0 0.00 0.36 0.36 98 1016.3
20260906033846 20 18 0.0 0.0 0.00 0.36 0.36 98 1016.3
20260906033345 20 18 0.0 0.0 0.00 0.36 0.36 98 1016.2
20260906032842 20 9 0.0 0.0 0.00 0.36 0.36 97 1016.5
20260906032337 20 8 0.0 0.0 0.00 0.36 0.36 97 1016.3
20260906031832 20 8 0.0 0.0 0.00 0.36 0.36 97 1016.4
20260906031328 20 7 0.0 0.0 0.00 0.36 0.36 97 1016.6
20260906030827 20 6 0.0 0.0 0.00 0.36 0.36 96 1016.3
20260906030323 20 6 0.0 0.0 0.00 0.36 0.36 96 1016.4
20260906025822 20 6 0.0 0.0 0.00 0.36 0.36 96 1016.4
20260906025311 20 6 0.0 0.0 0.00 0.36 0.36 96 1016.5
20260906024810 20 6 0.0 0.0 0.00 0.36 0.36 96 1016.5
20260906024309 20 6 0.0 0.0 0.00 0.36 0.36 96 1016.5
20260906023805 20 6 0.0 0.0 0.00 0.36 0.36 96 1016.5
20260906023300 20 6 0.0 0.0 0.00 0.36 0.36 95 1016.5
20260906022756 20 6 0.0 0.0 0.00 0.36 0.36 95 1016.6
20260906022251 20 6 0.0 0.0 0.00 0.36 0.36 94 1016.7
20260906021747 21 5 0.0 0.0 0.00 0.36 0.36 94 1016.5
20260906021246 21 5 0.0 0.0 0.00 0.36 0.36 94 1016.6
20260906020741 21 6 0.0 0.0 0.00 0.36 0.36 94 1016.5
20260906020240 21 352 0.0 0.0 0.00 0.36 0.36 93 1016.7
20260906015735 21 352 0.0 0.0 0.00 0.36 0.36 93 1016.5
20260906015234 21 352 0.0 0.0 0.00 0.36 0.36 93 1016.3
20260906014729 21 352 0.0 0.0 0.00 0.36 0.36 93 1016.2
20260906014224 21 352 0.0 0.0 0.00 0.36 0.36 93 1016.3
20260906013720 21 352 0.0 0.0 0.00 0.36 0.36 93 1016.3
20260906013220 21 354 0.0 0.0 0.00 0.36 0.36 93 1016.3
20260906012715 21 342 0.0 0.0 0.00 0.36 0.36 93 1016.2
20260906012210 21 342 0.0 0.0 0.00 0.36 0.36 92 1016.2
20260906011706 21 342 0.0 0.0 0.00 0.36 0.36 92 1016.2
20260906011205 21 341 0.0 0.0 0.00 0.36 0.36 91 1015.9
20260906010701 21 341 0.0 0.0 0.00 0.36 0.36 91 1016.0
20260906010157 21 342 0.0 0.0 0.00 0.36 0.36 92 1015.9
20260906005657 21 342 0.0 0.0 0.00 0.36 0.36 92 1015.7
20260906005156 21 343 0.0 0.0 0.00 0.36 0.36 91 1015.6
20260906004655 21 343 0.0 0.0 0.00 0.36 0.36 90 1016.0
20260906004150 21 342 0.0 0.0 0.00 0.36 0.36 90 1015.7
20260906003646 21 342 0.0 0.0 0.00 0.36 0.36 89 1015.6
20260906003141 22 342 0.0 0.0 0.00 0.36 0.36 89 1015.5
20260906002636 22 343 0.0 0.0 0.00 0.36 0.36 88 1015.4
20260906002131 22 343 0.0 0.0 0.00 0.36 0.36 87 1015.5
20260906001626 22 342 0.0 0.0 0.00 0.36 0.36 87 1015.6
20260906001126 22 343 0.0 0.0 0.00 0.36 0.36 87 1015.9
20260906000622 22 343 0.0 0.0 0.00 0.36 0.36 86 1015.7
20260906000117 22 343 0.0 0.0 0.00 0.36 0.36 85 1015.7
20260905235616 22 342 0.0 0.0 0.00 0.36 0.36 85 1015.7
20260905235111 22 342 0.0 0.0 0.00 0.36 0.36 84 1016.0
20260905234606 23 333 0.0 0.0 0.00 0.36 0.36 84 1015.7
20260905234102 23 336 0.0 0.0 0.00 0.36 0.36 84 1015.7
20260905233601 23 322 0.0 0.0 0.00 0.36 0.36 83 1015.9
20260905233056 23 323 0.0 0.0 0.00 0.36 0.36 83 1015.9
20260905232552 23 323 0.0 0.0 0.00 0.36 0.36 83 1015.6
20260905232047 23 323 0.0 0.0 0.00 0.36 0.36 83 1015.7
20260905231542 23 324 0.0 0.0 0.00 0.36 0.36 82 1015.9
20260905231039 23 325 0.0 0.0 0.00 0.36 0.36 81 1015.7
20260905230538 23 325 0.0 0.0 0.00 0.36 0.36 81 1016.3
20260905230036 23 310 0.0 0.0 0.00 0.36 0.36 81 1015.9
20260905225525 23 327 0.0 0.0 0.00 0.36 0.36 81 1015.7
20260905225020 23 303 0.0 0.0 0.00 0.36 0.36 81 1016.2
20260905224515 24 342 0.0 0.0 0.00 0.36 0.36 79 1015.9
20260905224014 24 315 3.2 3.2 0.00 0.36 0.36 79 1015.9
20260905223512 25 332 0.0 0.0 0.00 0.36 0.36 78 1015.6
20260905223008 25 315 1.6 1.6 0.00 0.36 0.36 77 1016.1
20260905222508 25 318 1.6 1.6 0.00 0.36 0.36 76 1015.9
20260905222003 25 332 1.6 1.6 0.00 0.36 0.36 76 1015.6
20260905221500 25 292 4.8 4.8 0.00 0.36 0.36 75 1015.7
20260905220955 25 307 4.8 8.0 0.00 0.36 0.36 75 1015.5
20260905220451 25 307 1.6 3.2 0.00 0.36 0.36 76 1015.5
20260905215950 25 337 3.2 4.8 0.00 0.36 0.36 76 1015.6
20260905215446 25 339 1.6 3.2 0.00 0.36 0.36 77 1015.4
20260905214942 25 290 4.8 4.8 0.00 0.36 0.36 76 1015.5
20260905214438 25 322 3.2 3.2 0.00 0.36 0.36 76 1015.4
20260905213938 26 326 3.2 3.2 0.00 0.36 0.36 76 1015.1
20260905213434 26 329 1.6 3.2 0.00 0.36 0.36 77 1015.2
20260905212929 26 291 4.8 4.8 0.00 0.36 0.36 76 1015.1
20260905212424 25 329 0.0 0.0 0.00 0.36 0.36 75 1015.1
20260905211923 26 312 1.6 1.6 0.00 0.36 0.36 74 1015.1
20260905211419 26 306 1.6 3.2 0.00 0.36 0.36 74 1015.2
20260905210915 25 300 1.6 4.8 0.00 0.36 0.36 72 1015.0
20260905210415 25 328 6.4 8.0 0.00 0.36 0.36 71 1015.1
20260905205914 26 329 6.4 8.0 0.00 0.36 0.36 71 1015.1
20260905205409 26 313 3.2 4.8 0.00 0.36 0.36 74 1014.8
20260905204908 26 342 1.6 3.2 0.00 0.36 0.36 71 1015.2
20260905204404 26 339 1.6 1.6 0.00 0.36 0.36 71 1015.2
20260905203903 26 324 3.2 4.8 0.00 0.36 0.36 71 1015.0
20260905203359 26 331 4.8 8.0 0.00 0.36 0.36 72 1015.1
20260905202854 26 317 3.2 3.2 0.00 0.36 0.36 72 1015.1
20260905202349 26 296 1.6 1.6 0.00 0.36 0.36 72 1015.0
20260905201845 26 321 0.0 0.0 0.00 0.36 0.36 73 1015.2
20260905201340 25 336 4.8 4.8 0.00 0.36 0.36 73 1015.2
20260905200839 25 344 8.0 11.3 0.00 0.36 0.36 73 1015.1
20260905200336 25 325 1.6 1.6 0.00 0.36 0.36 75 1015.0
20260905195834 25 328 3.2 3.2 0.00 0.36 0.36 74 1015.3
20260905195329 25 292 3.2 3.2 0.00 0.36 0.36 76 1015.3
20260905194825 25 351 3.2 3.2 0.00 0.36 0.36 74 1015.3
20260905194324 25 338 0.0 1.6 0.00 0.36 0.36 75 1015.3
20260905193824 25 21 4.8 4.8 0.00 0.36 0.36 73 1015.5
20260905193319 25 336 3.2 3.2 0.00 0.36 0.36 74 1015.5
20260905192815 25 336 3.2 3.2 0.00 0.36 0.36 76 1015.9
20260905192311 25 348 8.0 9.7 0.00 0.36 0.36 74 1015.6
20260905191809 25 329 3.2 3.2 0.00 0.36 0.36 75 1015.6
20260905191308 25 354 3.2 4.8 0.00 0.36 0.36 79 1015.9
20260905190807 25 345 3.2 3.2 0.00 0.36 0.36 77 1015.7
20260905190301 25 310 3.2 3.2 0.00 0.36 0.36 79 1016.1
20260905185759 25 2 4.8 4.8 0.00 0.36 0.36 76 1016.1
20260905185249 25 327 1.6 3.2 0.00 0.36 0.36 73 1016.3
20260905184748 25 330 4.8 4.8 0.00 0.36 0.36 73 1016.3
20260905184247 25 4 3.2 3.2 0.00 0.36 0.36 72 1016.4
20260905183741 25 336 3.2 3.2 0.00 0.36 0.36 74 1016.5
20260905183237 25 295 1.6 3.2 0.00 0.36 0.36 75 1016.3
20260905182736 25 336 6.4 8.0 0.00 0.36 0.36 74 1016.5
20260905182236 25 15 4.8 8.0 0.00 0.36 0.36 73 1016.4
20260905181732 25 342 0.0 0.0 0.00 0.36 0.36 75 1016.5
20260905181230 25 353 1.6 1.6 0.00 0.36 0.36 81 1016.7
20260905180725 25 21 0.0 0.0 0.00 0.36 0.36 80 1016.6
20260905180220 25 325 0.0 0.0 0.00 0.36 0.36 82 1016.5
20260905175715 25 192 1.6 3.2 0.00 0.36 0.36 81 1016.3
20260905175210 24 315 0.0 0.0 0.00 0.36 0.36 83 1016.7
20260905174705 25 316 1.6 1.6 0.00 0.36 0.36 83 1016.8
20260905174200 25 57 1.6 1.6 0.00 0.36 0.36 83 1016.7
20260905173656 25 290 0.0 0.0 0.00 0.36 0.36 84 1016.9
20260905173152 24 344 0.0 0.0 0.00 0.36 0.36 87 1016.8
20260905172651 23 310 1.6 3.2 0.00 0.36 0.36 88 1016.9
20260905172145 23 282 1.6 1.6 0.00 0.36 0.36 89 1017.0
20260905171641 23 288 3.2 3.2 0.00 0.36 0.36 91 1017.4
20260905171137 23 309 3.2 3.2 0.00 0.36 0.36 91 1017.2
20260905170634 22 335 1.6 1.6 0.00 0.36 0.36 93 1016.7
20260905170129 22 280 1.6 1.6 0.00 0.36 0.36 94 1017.0
20260905165623 22 314 0.0 0.0 0.00 0.36 0.36 95 1017.2
20260905165119 22 0 1.6 1.6 0.00 0.36 0.36 94 1017.0
20260905164614 22 356 0.0 1.6 0.00 0.36 0.36 96 1017.1
20260905164113 21 315 1.6 1.6 0.00 0.36 0.36 95 1016.9
20260905163609 22 336 3.2 3.2 0.00 0.36 0.36 95 1017.0
20260905163106 21 292 3.2 3.2 0.00 0.36 0.36 95 1017.0
20260905162602 21 285 4.8 8.0 0.00 0.36 0.36 95 1017.0
20260905162101 21 307 3.2 4.8 0.00 0.36 0.36 95 1017.0
20260905161600 21 306 3.2 3.2 0.00 0.36 0.36 96 1017.1
20260905161058 21 301 3.2 3.2 0.00 0.36 0.36 96 1017.6
20260905160557 21 309 3.2 3.2 0.00 0.36 0.36 96 1017.1
20260905160057 21 325 0.0 0.0 0.00 0.36 0.36 96 1017.0
20260905155552 21 216 0.0 0.0 0.00 0.36 0.36 96 1016.7
20260905155050 21 329 0.0 0.0 0.00 0.36 0.36 96 1016.9
20260905154545 21 334 0.0 1.6 0.00 0.36 0.36 96 1017.0
20260905154041 21 317 1.6 3.2 0.00 0.36 0.36 96 1017.1
20260905153537 21 308 0.0 0.0 0.00 0.36 0.36 95 1017.5
20260905153036 21 298 0.0 0.0 0.00 0.36 0.36 95 1017.6
20260905152531 21 265 0.0 0.0 0.00 0.36 0.36 95 1017.8
20260905152026 21 49 1.6 1.6 0.00 0.36 0.36 95 1018.0
20260905151521 20 41 1.6 1.6 0.00 0.36 0.36 96 1018.1
20260905151017 20 76 1.6 1.6 0.00 0.36 0.36 98 1018.2
20260905150512 20 40 3.2 3.2 0.00 0.36 0.36 99 1018.4
20260905150010 20 36 0.0 1.6 0.00 0.36 0.36 99 1018.5
20260905145503 20 110 3.2 3.2 0.00 0.36 0.36 99 1018.8
20260905145003 20 78 1.6 1.6 0.00 0.36 0.36 99 1018.6
20260905144458 20 2 1.6 1.6 0.00 0.36 0.36 99 1018.9
20260905143956 20 341 1.6 3.2 0.00 0.36 0.36 99 1018.6
20260905143455 20 16 0.0 0.0 0.00 0.36 0.36 99 1018.3
20260905142951 20 354 0.0 1.6 0.00 0.36 0.36 99 1018.6
20260905142449 20 24 0.0 0.0 0.00 0.36 0.36 99 1018.4
20260905141945 20 25 1.6 1.6 0.00 0.36 0.36 99 1018.4
20260905141440 20 103 1.6 3.2 0.00 0.36 0.36 99 1018.8
20260905140936 20 56 0.0 1.6 0.00 0.36 0.36 99 1018.4
20260905140431 20 10 0.0 0.0 0.00 0.36 0.36 99 1018.8
20260905135930 20 41 1.6 1.6 0.00 0.36 0.36 99 1018.5
20260905135426 20 333 0.0 0.0 0.30 0.36 0.36 99 1018.6
20260905134921 20 332 0.0 1.6 0.61 0.36 0.36 98 1018.9
20260905134420 20 333 8.0 12.9 1.85 0.30 0.30 98 1018.4
20260905133915 21 11 9.7 12.9 1.37 0.23 0.23 96 1018.4
20260905133415 22 336 4.8 4.8 0.00 0.00 0.00 94 1018.6
20260905132914 21 310 1.6 3.2 0.00 0.00 0.00 96 1018.1
20260905132410 21 321 3.2 3.2 0.00 0.00 0.00 96 1018.2
20260905131904 21 338 3.2 4.8 0.00 0.00 0.00 96 1017.9
20260905131400 21 312 0.0 0.0 0.00 0.00 0.00 96 1017.0
20260905130855 21 312 0.0 0.0 0.00 0.00 0.00 96 1017.2
20260905130354 21 310 0.0 0.0 0.00 0.00 0.00 96 1017.1
20260905125849 21 310 0.0 0.0 0.00 0.00 0.00 95 1017.2
20260905125344 21 310 0.0 0.0 0.00 0.00 0.00 95 1017.2
20260905124840 21 310 0.0 0.0 0.00 0.00 0.00 95 1017.0
20260905124336 21 310 0.0 0.0 0.00 0.00 0.00 96 1016.8
20260905123836 21 310 0.0 0.0 0.00 0.00 0.00 96 1017.0
20260905123333 21 310 0.0 0.0 0.00 0.00 0.00 97 1016.9
20260905122832 21 310 0.0 0.0 0.00 0.00 0.00 98 1017.2
20260905122332 21 310 0.0 0.0 0.00 0.00 0.00 99 1017.2
20260905121827 20 310 0.0 0.0 0.00 0.00 0.00 99 1017.2
20260905121324 20 310 0.0 0.0 0.00 0.00 0.00 99 1017.1
20260905120822 20 310 0.0 0.0 0.00 0.00 0.00 99 1017.1
20260905120317 20 310 0.0 0.0 0.00 0.00 0.00 99 1017.0
20260905115812 20 310 0.0 0.0 0.00 0.00 0.00 99 1017.2
20260905115312 20 310 0.0 0.0 0.00 0.00 0.00 99 1016.8
20260905114811 20 311 0.0 0.0 0.00 0.00 0.00 99 1016.7